Location: ??
(35.4627°N, 139.3695°E)
Time: 13:29:40
(UTC+00:00)

ASTRO E2 - Pass Details

Date: 25 November 2020
Orbit: 508 x 515 km, 31.4° (Epoch: 20 January)

Event Time Altitude Azimuth Distance (km) Brightness Sun altitude
Exits shadow 19:55:12 34° 229° (SW) 843 3.4 -18.8°
Maximum altitude 19:56:21 45° 184° (S) 695 3.3 -18.5°
Drops below altitude 10° 20:00:08 10° 111° (ESE) 1,718 6.6 -17.8°
Sets 20:02:26 0° 104° (ESE) 2,604 8.1 -17.3°
